TimeCET,TemperatureF,Dew PointF,Humidity,Sea Level PressureIn,VisibilityMPH,Wind Direction,Wind SpeedMPH,Gust SpeedMPH,PrecipitationIn,Events,Conditions,WindDirDegrees,DateUTC
12:20 AM,3.2,-0.4,85,30.06,3.7,Variable,2.3,-,N/A,Fog,Patches of Fog,0,2012-12-12 23:20:00
12:50 AM,1.4,-0.4,92,30.06,3.7,NNE,2.3,-,N/A,,Unknown,30,2012-12-12 23:50:00
1:20 AM,1.4,-0.4,92,30.06,2.5,NE,2.3,-,N/A,,Unknown,40,2012-12-13 00:20:00
1:50 AM,1.4,-0.4,92,30.06,1.9,East,3.5,-,N/A,Fog,Patches of Fog,80,2012-12-13 00:50:00
2:20 AM,1.4,-0.4,92,30.04,3.1,East,2.3,-,N/A,Fog,Patches of Fog,100,2012-12-13 01:20:00
2:50 AM,1.4,-2.2,85,30.04,3.1,Variable,1.2,-,N/A,Fog,Patches of Fog,0,2012-12-13 01:50:00
3:20 AM,-0.4,-2.2,92,30.04,3.7,East,1.2,-,N/A,,Unknown,100,2012-12-13 02:20:00
3:50 AM,-0.4,-4.0,85,30.04,1.9,East,1.2,-,N/A,Fog,Patches of Fog,80,2012-12-13 02:50:00
4:20 AM,-0.4,-4.0,85,30.01,1.9,East,2.3,-,N/A,Fog,Patches of Fog,100,2012-12-13 03:20:00
4:50 AM,-2.2,-4.0,92,30.01,3.7,Variable,1.2,-,N/A,Fog,Patches of Fog,0,2012-12-13 03:50:00
5:20 AM,-0.4,-2.2,92,30.01,3.7,WNW,2.3,-,N/A,Fog,Patches of Fog,300,2012-12-13 04:20:00
5:50 AM,-2.2,-4.0,92,30.01,5.0,NE,2.3,-,N/A,,Unknown,50,2012-12-13 04:50:00
6:20 AM,-2.2,-4.0,92,30.01,5.0,ENE,3.5,-,N/A,,Unknown,70,2012-12-13 05:20:00
6:50 AM,-2.2,-5.8,85,30.01,5.0,ENE,2.3,-,N/A,Fog,Fog,60,2012-12-13 05:50:00
7:20 AM,-2.2,-5.8,85,30.01,3.1,NNE,2.3,-,N/A,Fog,Fog,30,2012-12-13 06:20:00
7:50 AM,-2.2,-4.0,92,30.01,3.7,NE,1.2,-,N/A,,Unknown,50,2012-12-13 06:50:00
8:20 AM,-0.4,-4.0,85,30.01,5.0,ENE,2.3,-,N/A,Fog,Patches of Fog,70,2012-12-13 07:20:00
8:50 AM,1.4,-2.2,85,30.01,5.6,NE,2.3,-,N/A,,Unknown,50,2012-12-13 07:50:00
9:20 AM,3.2,1.4,92,30.01,-9999.0,East,2.3,-,N/A,,Clear,100,2012-12-13 08:20:00
9:50 AM,6.8,5.0,92,30.01,-9999.0,NE,1.2,-,N/A,,Clear,50,2012-12-13 08:50:00
10:20 AM,10.4,8.6,92,30.01,-9999.0,ENE,2.3,-,N/A,,Clear,70,2012-12-13 09:20:00
10:50 AM,12.2,10.4,92,30.01,-9999.0,East,2.3,-,N/A,,Clear,80,2012-12-13 09:50:00
11:20 AM,14.0,12.2,93,29.98,-9999.0,ENE,2.3,-,N/A,,Clear,70,2012-12-13 10:20:00
11:50 AM,15.8,14.0,93,29.98,-9999.0,NE,2.3,-,N/A,,Clear,50,2012-12-13 10:50:00
12:20 PM,15.8,14.0,93,29.98,-9999.0,NE,3.5,-,N/A,,Clear,50,2012-12-13 11:20:00
12:50 PM,17.6,14.0,86,29.95,-9999.0,ENE,4.6,-,N/A,,Clear,70,2012-12-13 11:50:00
1:20 PM,19.4,14.0,80,29.95,-9999.0,ENE,4.6,-,N/A,,Clear,70,2012-12-13 12:20:00
1:50 PM,19.4,14.0,80,29.95,-9999.0,East,6.9,-,N/A,,Clear,80,2012-12-13 12:50:00
2:20 PM,21.2,14.0,74,29.95,-9999.0,East,4.6,-,N/A,,Clear,90,2012-12-13 13:20:00
2:50 PM,21.2,14.0,74,29.92,-9999.0,East,6.9,-,N/A,,Clear,90,2012-12-13 13:50:00
3:20 PM,19.4,14.0,80,29.92,-9999.0,East,8.1,-,N/A,,Clear,90,2012-12-13 14:20:00
3:50 PM,19.4,15.8,86,29.92,-9999.0,East,5.8,-,N/A,,Clear,80,2012-12-13 14:50:00
4:20 PM,19.4,15.8,86,29.92,-9999.0,East,5.8,-,N/A,,Clear,90,2012-12-13 15:20:00
4:50 PM,21.2,15.8,80,29.92,-9999.0,ENE,6.9,-,N/A,,Clear,70,2012-12-13 15:50:00
5:20 PM,19.4,15.8,86,29.92,-9999.0,East,5.8,-,N/A,,Clear,90,2012-12-13 16:20:00
5:50 PM,21.2,17.6,86,29.89,-9999.0,East,5.8,-,N/A,,Clear,80,2012-12-13 16:50:00
6:20 PM,21.2,17.6,86,29.89,-9999.0,East,4.6,-,N/A,,Clear,80,2012-12-13 17:20:00
6:50 PM,21.2,17.6,86,29.92,-9999.0,Variable,3.5,-,N/A,,Clear,0,2012-12-13 17:50:00
7:20 PM,23.0,17.6,80,29.92,6.2,East,4.6,-,N/A,,Overcast,80,2012-12-13 18:20:00
7:50 PM,23.0,17.6,80,29.92,6.2,East,4.6,-,N/A,,Mostly Cloudy,90,2012-12-13 18:50:00
8:20 PM,23.0,17.6,80,29.89,6.2,East,5.8,-,N/A,,Mostly Cloudy,80,2012-12-13 19:20:00
8:50 PM,21.2,17.6,86,29.89,6.2,East,5.8,-,N/A,,Mostly Cloudy,100,2012-12-13 19:50:00
9:20 PM,23.0,17.6,80,29.89,6.2,ENE,6.9,-,N/A,,Mostly Cloudy,70,2012-12-13 20:20:00
9:50 PM,21.2,17.6,86,29.89,-9999.0,East,5.8,-,N/A,,Clear,100,2012-12-13 20:50:00
10:20 PM,21.2,17.6,86,29.89,-9999.0,East,5.8,-,N/A,,Clear,80,2012-12-13 21:20:00
10:50 PM,21.2,17.6,86,29.86,-9999.0,East,4.6,-,N/A,,Clear,90,2012-12-13 21:50:00
11:20 PM,21.2,17.6,86,29.86,-9999.0,East,6.9,-,N/A,,Clear,100,2012-12-13 22:20:00
11:50 PM,23.0,17.6,80,29.86,-9999.0,ESE,6.9,-,N/A,,Clear,110,2012-12-13 22:50:00